TimeEST,TemperatureF,Dew PointF,Humidity,Sea Level PressureIn,VisibilityMPH,Wind Direction,Wind SpeedMPH,Gust SpeedMPH,PrecipitationIn,Events,Conditions,WindDirDegrees,DateUTC
12:51 AM,14.0,1.0,56,30.31,10.0,NW,9.2,-,N/A,,Clear,310,2013-01-27 05:51:00
1:51 AM,12.9,1.0,59,30.33,10.0,NNW,3.5,-,N/A,,Clear,330,2013-01-27 06:51:00
2:51 AM,10.9,-0.0,61,30.35,10.0,Calm,Calm,-,N/A,,Clear,0,2013-01-27 07:51:00
3:51 AM,7.0,-0.0,73,30.35,10.0,West,5.8,-,N/A,,Clear,280,2013-01-27 08:51:00
4:51 AM,8.1,1.0,73,30.36,10.0,West,3.5,-,N/A,,Clear,260,2013-01-27 09:51:00
5:51 AM,10.9,3.0,70,30.37,10.0,Calm,Calm,-,N/A,,Clear,0,2013-01-27 10:51:00
6:51 AM,8.1,1.9,76,30.40,10.0,West,4.6,-,N/A,,Clear,280,2013-01-27 11:51:00
7:51 AM,12.9,3.9,67,30.42,10.0,WNW,5.8,-,N/A,,Clear,300,2013-01-27 12:51:00
8:51 AM,18.0,5.0,57,30.43,10.0,NW,9.2,-,N/A,,Partly Cloudy,310,2013-01-27 13:51:00
9:51 AM,21.0,1.9,44,30.45,10.0,NW,5.8,-,N/A,,Clear,320,2013-01-27 14:51:00
10:51 AM,24.1,1.9,38,30.47,10.0,WNW,5.8,-,N/A,,Clear,300,2013-01-27 15:51:00
11:51 AM,28.0,-0.9,29,30.45,10.0,NW,12.7,-,N/A,,Clear,320,2013-01-27 16:51:00
12:51 PM,30.2,-2.2,25,30.42,10.0,NW,8.1,16.1,N/A,,Clear,310,2013-01-27 17:51:00
1:51 PM,32.0,-2.9,22,30.42,10.0,NNW,9.2,16.1,N/A,,Clear,340,2013-01-27 18:51:00
2:51 PM,32.0,-2.0,23,30.42,10.0,NW,11.5,-,N/A,,Partly Cloudy,310,2013-01-27 19:51:00
3:51 PM,30.9,-2.9,23,30.43,10.0,NW,10.4,-,N/A,,Partly Cloudy,320,2013-01-27 20:51:00
4:51 PM,28.0,-4.0,25,30.46,10.0,NNW,9.2,-,N/A,,Partly Cloudy,340,2013-01-27 21:51:00
5:51 PM,27.0,-6.0,24,30.47,10.0,NNW,10.4,-,N/A,,Clear,330,2013-01-27 22:51:00
6:51 PM,25.0,-5.1,27,30.47,10.0,NNW,4.6,-,N/A,,Partly Cloudy,330,2013-01-27 23:51:00
7:51 PM,21.0,-4.0,33,30.48,10.0,Calm,Calm,-,N/A,,Scattered Clouds,0,2013-01-28 00:51:00
8:51 PM,21.9,-2.9,34,30.48,10.0,Calm,Calm,-,N/A,,Mostly Cloudy,0,2013-01-28 01:51:00
9:51 PM,19.0,-0.0,43,30.48,10.0,Calm,Calm,-,N/A,,Partly Cloudy,0,2013-01-28 02:51:00
10:51 PM,18.0,1.0,48,30.48,10.0,Calm,Calm,-,N/A,,Partly Cloudy,0,2013-01-28 03:51:00
11:51 PM,16.0,1.9,54,30.48,10.0,Calm,Calm,-,N/A,,Scattered Clouds,0,2013-01-28 04:51:00